User: anonymous   Login
Location: Unspecified
(0.0000°N, 0.0000°E)
Time: 18:21:43
(UTC+00:00)
Language:

STARLINK-31349 - Orbit

View from above orbital plane
View from above orbital plane
View from above satellite
View from above satellite

Ground track
Ground track

The orbit is defined by the following mean orbital elements,

1 59317U          26145.37783226 +.00000000 +00000-0 +24313-4 0 00001
2 59317  43.0015 157.5370 0001297 271.6731  88.3972 15.27578856    05
Epoch (UTC): 25 May 2026 09:04:04
Eccentricity: 0.0001297
inclination: 43.0015°
perigee height: 482 km
apogee height: 484 km
right ascension of ascending node: 157.5370°
argument of perigee: 271.6731°
revolutions per day: 15.27578856
mean anomaly at epoch: 88.3972°

The dashed part of the orbit path shows where the satellite is in the earth's shadow,  

DLR